Weather in Glauchau

Germany     50°49′30″N   12°32′18″E
temp.,
°C
wind,
m/s
gust,
m/s
humid.,
%
clouds,
%
prec.,
mm/h
press.,
hPa
HPBL,
m
24 september, fri
fri2423:00+15w8146699 0.0 10141078
02:00+15w7137695 0.0 10141154
05:00+13wnw7128354 0.2 1015745
08:00+12w5128994 0.2 1016742
11:00+16w7973100 0.1 10171155
14:00+15w5980100 0.3 1017898
17:00+16wsw4780100 0.1 1016702
20:00+15sw4885100 0.1 1016288
25 september, sat
sat2523:00+15sw5107988 0.0 1017300
02:00+13sw410870 0.0 1017207
05:00+11ssw37940 0.0 1017125
08:00+12ssw48920 0.0 1018183
11:00+18wsw44710 0.0 1018661
14:00+21w23570 0.0 10181160
17:00+21wsw12566 0.0 10171255
20:00+16ese22765 0.0 101811
26 september, sun
sun2623:00+14sse22855 0.0 101811
02:00+13s228497 0.0 101813
05:00+12s228323 0.0 101818
08:00+14s227544 0.0 101829
11:00+20s1256100 0.0 1017296
14:00+23w2249100 0.0 1017898
17:00+24wnw11540 0.0 1015685
20:00+17se22725 0.0 101612
27 september, mon
mon2723:00+15ssw227661 0.0 101621
02:00+15ssw227499 0.0 101724
05:00+14ssw369699 0.0 1017137
08:00+16sw2591100 0.2 1018220
11:00+17sw3485100 0.1 1019336
14:00+17wsw3480100 0.2 1019478
17:00+20w346760 0.0 1019958
20:00+15sw229031 1.3 102134
28 september, tue
tue2823:00+14wsw389221 0.8 1022248
02:00+13wnw4792100 1.2 1024480
05:00+12nnw258887 0.1 1025491
08:00+10nnw13842 0.1 1026208
11:00+12nne2366100 0.0 1026525
14:00+15ne3355100 0.0 1024780
17:00+15ne3562100 0.0 1022543
20:00+11ene2572100 0.0 102292